Regional Weather Roundup
Issued by NWS

Home | Current Version | Previous Version | Text Only | Print | Product List | Glossary Off
Versions: 1 2 3 4 5 6 7 8 9 10 11 12 13 14 15 16 17 18 19 20 21 22 23 24 25 26 27 28

000
ASUS45 KBOI 261010
RWRID

IDAHO REGIONAL WEATHER ROUNDUP
NATIONAL WEATHER SERVICE BOISE ID
400 AM MDT WED APR 26 2017

NOTE: "FAIR" INDICATES FEW OR NO CLOUDS BELOW 12000 FEET
WITH NO SIGNIFICANT WEATHER AND/OR OBSTRUCTIONS TO VISIBILITY

IDZ012-014-261100-
SOUTHWEST IDAHO


CITY           SKY/WX    TMP DP  RH WIND       PRES   REMARKS
BOISE          CLOUDY    47  40  76 E7        29.86F
CALDWELL       LGT RAIN  46  42  86 E6        29.86F
MOUNTAIN HOME  CLOUDY    47  38  69 N6        29.87S
$$

IDZ016-017-261100-
SOUTHCENTRAL IDAHO


CITY           SKY/WX    TMP DP  RH WIND       PRES   REMARKS
BURLEY         CLOUDY    45  31  58 SW8       29.86F
JEROME         CLOUDY    44  34  67 S3        29.87F
TWIN FALLS     CLOUDY    43  33  68 SW13      29.87F
$$

IDZ019>023-261100-
SOUTHEAST IDAHO


CITY           SKY/WX    TMP DP  RH WIND       PRES   REMARKS
IDAHO FALLS    CLEAR     38  31  76 SW14      29.83S WCI  30
POCATELLO      CLOUDY    43  31  62 SW14      29.86F
REXBURG        CLOUDY    37  31  78 SW13G21   29.81R WCI  29
$$

IDZ006-010-011-018-031-032-261100-
CENTRAL IDAHO MOUNTAINS


CITY           SKY/WX    TMP DP  RH WIND       PRES   REMARKS
MCCALL         LGT RAIN  37  32  82 S7        29.81F WCI  32
HAILEY         CLOUDY    41  28  60 CALM      29.86F
STANLEY          N/A     32  27  81 CALM      29.84F
SALMON         CLOUDY    37  34  87 CALM      29.79F
CHALLIS        CLOUDY    42  22  44 S8        29.79F
$$

IDZ002-004-006-007-026-261100-
NORTHERN IDAHO


CITY           SKY/WX    TMP DP  RH WIND       PRES   REMARKS
LEWISTON       LGT RAIN  48  45  89 CALM      29.78F
LOWELL           N/A     46  43  89 CALM      29.81F
COEUR D`ALENE  LGT RAIN  42  40  92 SE5       29.77F
MULLAN PASS    SNOW      31  31 100 VRB3      29.72F VSB 1/4
$$




USA.gov is the U.S. government's official web portal to all federal, state and local government web resources and services.